Weather History for Marysville, OH

Change the Weather History Date:

Monday, March 4, 2013

  Actual Average (KDLZ) Record (KDLZ)
Temperature  
Mean Temperature 26 °F -  
Max Temperature 38 °F 45 °F 75 °F (1976)
Min Temperature 16 °F 25 °F -2 °F (1943)
Degree Days  
Heating Degree Days 38    
Moisture  
Dew Point 17 °F    
Average Humidity 65    
Maximum Humidity 88    
Minimum Humidity 39    
Precipitation  
Precipitation 0.00 in - - ()
Sea Level Pressure  
Sea Level Pressure 30.08 in    
Wind  
Wind Speed 2 mph (WNW)    
Max Wind Speed 8 mph    
Max Gust Speed -    
Visibility 10 miles    
Events      
Averages and records for this station are not official NWS values.
T = Trace of Precipitation, MM = Missing Value Source: NWS Daily Summary

Daily Weather History Graph

Daily Weather History Graph

Search for Another Location

Airport:

Trip Planner

Search our weather history database for the weather conditions in past years. The results will help you decide how hot, cold, wet, or windy it might be!

Date:

Astronomy

Mar. 04, 2013 Rise Set
Actual Time 7:01 AM EST 6:28 PM EST
Civil Twilight 6:34 AM EST 6:55 PM EST
Nautical Twilight 6:03 AM EST 7:27 PM EST
Astronomical Twilight 5:31 AM EST 7:58 PM EST
Moon 1:10 AM EST (3/4) 11:09 AM EST (3/4)
Length of Visible Light 12h 21m
Length of Day
11h 26m
Waning Gibbous, 52% of the Moon is Illuminated
Mar 4
Waning Gibbous
Mar 4
Last Quarter
Mar 11
New
Mar 19
First Quarter
Mar 27
Full

Hourly Weather History & Observations

Time (EST) Temp. Windchill Dew Point Humidity Pressure Visibility Wind Dir Wind Speed Gust Speed Precip Events Conditions
12:13 AM 25.7 °F - 15.6 °F 66% 30.05 in 10.0 mi Calm Calm - N/A   Overcast
12:34 AM 24.8 °F - 16.9 °F 72% 30.05 in 10.0 mi Calm Calm - N/A   Overcast
12:54 AM 23.7 °F - 19.2 °F 83% 30.06 in 10.0 mi Calm Calm - N/A   Overcast
1:13 AM 23.4 °F - 19.4 °F 85% 30.07 in 10.0 mi Calm Calm - N/A   Overcast
1:34 AM 22.6 °F - 18.3 °F 83% 30.07 in 10.0 mi Calm Calm - N/A   Overcast
1:54 AM 21.2 °F - 17.2 °F 85% 30.07 in 10.0 mi Calm Calm - N/A   Scattered Clouds
2:13 AM 21.6 °F - 17.2 °F 83% 30.07 in 10.0 mi Calm Calm - N/A   Clear
2:34 AM 20.3 °F 15.4 °F 17.1 °F 87% 30.07 in 10.0 mi West 3.5 mph - N/A   Clear
2:53 AM 19.9 °F 14.9 °F 16.5 °F 87% 30.07 in 7.0 mi WNW 3.5 mph - N/A   Clear
3:14 AM 21.4 °F 16.6 °F 14.4 °F 74% 30.06 in 10.0 mi NW 3.5 mph - N/A   Clear
3:34 AM 19.9 °F - 14.9 °F 81% 30.06 in 10.0 mi Calm Calm - N/A   Clear
3:53 AM 18.5 °F 11.7 °F 14.9 °F 86% 30.07 in 10.0 mi West 4.6 mph - N/A   Clear
4:14 AM 18.7 °F 11.9 °F 15.1 °F 86% 30.08 in 10.0 mi WNW 4.6 mph - N/A   Clear
4:34 AM 19.2 °F 14.1 °F 14.7 °F 83% 30.08 in 10.0 mi West 3.5 mph - N/A   Clear
4:53 AM 19.2 °F 12.5 °F 15.6 °F 86% 30.09 in 10.0 mi WNW 4.6 mph - N/A   Clear
5:14 AM 17.6 °F 12.3 °F 13.3 °F 83% 30.09 in 10.0 mi WNW 3.5 mph - N/A   Clear
5:34 AM 18.0 °F 12.7 °F 14.4 °F 86% 30.10 in 10.0 mi West 3.5 mph - N/A   Clear
5:53 AM 17.8 °F 12.5 °F 14.0 °F 85% 30.10 in 10.0 mi WNW 3.5 mph - N/A   Clear
6:14 AM 16.9 °F 11.5 °F 13.8 °F 88% 30.10 in 10.0 mi WNW 3.5 mph - N/A   Clear
6:34 AM 17.1 °F 11.7 °F 13.8 °F 87% 30.11 in 10.0 mi West 3.5 mph - N/A   Clear
7:14 AM 17.6 °F 12.3 °F 14.0 °F 86% 30.12 in 10.0 mi West 3.5 mph - N/A   Clear
7:34 AM 18.7 °F 13.5 °F 15.3 °F 87% 30.13 in 10.0 mi West 3.5 mph - N/A   Clear
7:54 AM 20.5 °F - 16.2 °F 83% 30.13 in 10.0 mi Calm Calm - N/A   Clear
8:14 AM 22.3 °F 16.1 °F 16.7 °F 79% 30.13 in 10.0 mi NW 4.6 mph - N/A   Clear
8:34 AM 23.2 °F 18.7 °F 16.7 °F 76% 30.14 in 10.0 mi NW 3.5 mph - N/A   Clear
8:54 AM 24.3 °F 18.4 °F 17.2 °F 75% 30.15 in 10.0 mi WNW 4.6 mph - N/A   Clear
9:14 AM 25.3 °F 21.1 °F 16.9 °F 70% 30.15 in 10.0 mi NW 3.5 mph - N/A   Clear
9:34 AM 26.1 °F 20.5 °F 16.9 °F 68% 30.14 in 10.0 mi NNW 4.6 mph - N/A   Clear
9:54 AM 27.0 °F 23.0 °F 17.1 °F 66% 30.14 in 10.0 mi West 3.5 mph - N/A   Clear
10:14 AM 28.0 °F 24.2 °F 17.4 °F 64% 30.13 in 10.0 mi West 3.5 mph - N/A   Clear
10:34 AM 28.9 °F 23.9 °F 16.9 °F 61% 30.13 in 10.0 mi West 4.6 mph - N/A   Clear
10:54 AM 29.8 °F 24.9 °F 17.1 °F 59% 30.13 in 10.0 mi NW 4.6 mph - N/A   Clear
11:14 AM 31.1 °F 23.7 °F 16.5 °F 55% 30.13 in 10.0 mi WNW 8.1 mph - N/A   Clear
11:34 AM 31.8 °F 28.5 °F 15.4 °F 51% 30.12 in 10.0 mi NW 3.5 mph - N/A   Clear
11:54 AM 32.4 °F 29.1 °F 17.6 °F 55% 30.12 in 10.0 mi West 3.5 mph - N/A   Clear
12:13 PM 33.4 °F 28.1 °F 17.6 °F 52% 30.11 in 10.0 mi SW 5.8 mph - N/A   Clear
12:34 PM 33.6 °F 28.4 °F 15.3 °F 47% 30.10 in 10.0 mi WSW 5.8 mph - N/A   Clear
12:54 PM 34.5 °F 31.6 °F 16.9 °F 49% 30.10 in 10.0 mi SSW 3.5 mph - N/A   Clear
1:13 PM 34.5 °F - 13.3 °F 42% 30.09 in 10.0 mi Calm Calm - N/A   Clear
1:54 PM 35.8 °F - 13.5 °F 40% 30.07 in 10.0 mi Calm Calm - N/A   Clear
2:13 PM 36.7 °F 34.1 °F 16.7 °F 44% 30.07 in 10.0 mi West 3.5 mph - N/A   Clear
2:34 PM 36.9 °F - 15.4 °F 42% 30.06 in 10.0 mi Calm Calm - N/A   Clear
2:54 PM 36.7 °F - 15.8 °F 43% 30.06 in 10.0 mi Calm Calm - N/A   Clear
3:13 PM 36.7 °F - 15.3 °F 42% 30.06 in 10.0 mi Calm Calm - N/A   Clear
3:34 PM 36.5 °F 33.9 °F 14.9 °F 41% 30.06 in 10.0 mi West 3.5 mph - N/A   Clear
3:54 PM 36.7 °F 34.1 °F 15.4 °F 42% 30.06 in 10.0 mi SW 3.5 mph - N/A   Clear
4:13 PM 36.7 °F - 14.5 °F 40% 30.05 in 10.0 mi Calm Calm - N/A   Clear
4:34 PM 36.5 °F - 13.3 °F 39% 30.05 in 10.0 mi Calm Calm - N/A   Clear
4:54 PM 37.4 °F - 16.2 °F 42% 30.05 in 10.0 mi Calm Calm - N/A   Clear
5:13 PM 37.8 °F 35.3 °F 15.4 °F 40% 30.05 in 10.0 mi ENE 3.5 mph - N/A   Clear
5:34 PM 36.7 °F - 14.9 °F 41% 30.04 in 10.0 mi Calm Calm - N/A   Clear
5:54 PM 35.8 °F 33.0 °F 17.4 °F 47% 30.05 in 10.0 mi SSW 3.5 mph - N/A   Clear
6:13 PM 35.1 °F - 17.2 °F 48% 30.04 in 10.0 mi Calm Calm - N/A   Clear
6:34 PM 34.9 °F - 13.8 °F 42% 30.05 in 10.0 mi Calm Calm - N/A   Scattered Clouds
6:54 PM 34.9 °F - 14.0 °F 42% 30.05 in 10.0 mi Calm Calm - N/A   Scattered Clouds
7:13 PM 32.4 °F - 20.7 °F 62% 30.06 in 10.0 mi Calm Calm - N/A   Scattered Clouds
7:34 PM 31.6 °F - 22.3 °F 68% 30.05 in 10.0 mi Calm Calm - N/A   Mostly Cloudy
7:54 PM 31.5 °F - 21.7 °F 67% 30.05 in 10.0 mi Calm Calm - N/A   Scattered Clouds
8:13 PM 31.1 °F - 20.3 °F 64% 30.05 in 10.0 mi Calm Calm - N/A   Scattered Clouds
8:34 PM 31.1 °F 27.7 °F 22.3 °F 70% 30.04 in 10.0 mi East 3.5 mph - N/A   Mostly Cloudy
8:54 PM 32.0 °F 27.5 °F 21.6 °F 65% 30.03 in 10.0 mi East 4.6 mph - N/A   Overcast
9:13 PM 32.2 °F 26.7 °F 21.0 °F 63% 30.04 in 10.0 mi East 5.8 mph - N/A   Overcast
9:34 PM 32.2 °F 27.7 °F 21.2 °F 64% 30.04 in 10.0 mi ESE 4.6 mph - N/A   Overcast
9:54 PM 32.0 °F 28.7 °F 21.0 °F 64% 30.04 in 10.0 mi East 3.5 mph - N/A   Overcast
10:13 PM 32.0 °F 28.7 °F 22.1 °F 67% 30.04 in 10.0 mi East 3.5 mph - N/A   Overcast
10:34 PM 32.0 °F 28.7 °F 21.7 °F 66% 30.04 in 10.0 mi East 3.5 mph - N/A   Overcast
10:54 PM 32.4 °F - 20.5 °F 62% 30.04 in 10.0 mi Calm Calm - N/A   Overcast
11:14 PM 32.2 °F 28.9 °F 22.3 °F 67% 30.04 in 10.0 mi East 3.5 mph - N/A   Overcast
11:34 PM 32.0 °F 28.7 °F 22.5 °F 68% 30.05 in 10.0 mi West 3.5 mph - N/A   Overcast
11:53 PM 32.0 °F 26.4 °F 21.9 °F 66% 30.06 in 10.0 mi West 5.8 mph - N/A   Overcast